SCP
0 0 0 0 0 0 0 0 0 0 0 0 0 0 0 0 0 0 0 0 0 0 0 0 0 0 0 0 0 0 0 0 0 0 0 0 0 0 0 0 0 0 0
0 0 0 0 0 0 0 0 0 0 0 0 0 0 0 0 0 0 0 0 0 0 0 0 0 0 0 0 0 0 0 0 0 0 0 0 0 0 0 0 0 0 0
0 0 0 0 0 0 0 0 0 0 0 0 0 0 0 0 0 0 0 0 0 0 0 0 0 0 0 0 0 0 0 0 0 0 0 0 0 0 0 0 0 0 0
0 0 0 0 0 0 0 0 0 0 0 0 0 0 0 0 0 0 0 0 0 0 0 0 0 0 0 0 0 0 0 0 0 0 0 0 0 0 0 0 0 0 0
0 0 0 0 0 0 0 0 0 0 0 0 0 0 0 0 0 0 0 0 0 0 0 0 0 0 0 0 0 0 0 0 0 0 0 0 0 0 0 0 0 0 0
0 0 0 0 0 0 0 0 0 0 0 0 0 0 0 0 0 0 0 0 0 0 0 0 0 0 0 0 0 0 0 0 0 0 0 0 0 0 0 0 0 0 0
0 0 0 0 0 0 0 0 0 0 0 0 0 0 0 0 0 0 0 0 0 0 0 0 0 0 0 0 0 0 0 0 0 0 0 0 0 0 0 0 0 0 0
0 0 0 0 0 0 0 0 0 0 0 0 0 0 0 0 0 0 0 0 0 0 0 0 0 0 0 0 0 0 0 0 0 0 0 0 0 0 0 0 0 0 0
0 0 0 0 0 0 0 0 0 0 0 0 0 0 0 0 0 0 0 0 0 0 0 0 0 0 0 0 0 0 0 0 0 0 0 0 0 0 0 0 0 0 0
0 0 0 0 0 0 0 0 0 0 0 0 0 0 0 0 0 0 0 0 0 0 0 0 0 0 0 0 0 0 0 0 0 0 0 0 0 0 0 0 0 0 0
0 0 0 0 0 0 0 0 0 0 0 0 0 0 0 0 0 0 0 0 0 0 0 0 0 0 0 0 0 0 0 0 0 0 0 0 0 0 0 0 0 0 0
0 0 0 0 0 0 0 0 0 0 0 0 0 0 0 0 0 0 0 0 0 0 0 0 0 0 0 0 0 0 0 0 0 0 0 0 0 0 0 0 0 0 0
0 0 0 0 0 0 0 0 0 0 0 0 0 0 0 0 0 0 0 0 0 0 0 0 0 0 0 0 0 0 0 0 0 0 0 0 0 0 0 0 0 0 0
0 0 0 0 0 0 0 0 0 0 0 0 0 0 0 0 0 0 0 0 0 0 0 0 0 0 0 0 0 0 0 0 0 0 0 0 0 0 0 0 0 0 0
0 0 0 0 0 0 0 0 0 0 0 0 0 0 0 0 0 0 0 0 0 0 0 0 0 0 0 0 0 0 0 0 0 0 0 0 0 0 0 0 0 0 0
0 0 0 0 0 0 0 0 0 0 0 0 0 0 0 0 0 0 0 0 0 0 0 0 0 0 0 0 0 0 0 0 0 0 0 0 0 0 0 0 0 0 0
0 0 0 0 0 0 0 0 0 0 0 0 0 0 0 0 0 0 0 0 0 0 0 0 0 0 0 0 0 0 0 0 0 0 0 0 0 0 0 0 0 0 0
0 0 0 0 0 0 0 0 0 0 0 0 0 0 0 0 0 0 0 0 0 0 0 0 0 0 0 0 0 0 0 0 0 0 0 0 0 0 0 0 0 0 0
0 0 0 0 0 0 0 0 0 0 0 0 0 0 0 0 0 0 0 0 0 0 0 0 0 0 0 0 0 0 0 0 0 0 0 0 0 0 0 0 0 0 0
0 0 0 0 0 0 0 0 0 0 0 0 0 0 0 0 0 0 0 0 0 0 0 0 0 0 0 0 0 0 0 0 0 0 0 0 0 0 0 0 0 0 0
0 0 0 0 0 0 0 0 0 0 0 0 0 0 0 0 0 0 0 0 0 0 0 0 0 0 0 0 0 0 0 0 0 0 0 0 0 0 0 0 0 0 0
0 0 0 0 0 0 0 0 0 0 0 0 0 0 0 0 0 0 0 0 0 0 0 0 0 0 0 0 0 0 0 0 0 0 0 0 0 0 0 0 0 0 0
0 0 0 0 0 0 0 0 0 0 0 0 0 0 0 0 0 0 0 0 0 0 0 0 0 0 0 0 0 0 0 0 0 0 0 0 0 0 0 0 0 0 0
0 0 0 0 0 0 0 0 0 0 0 0 0 0 0 0 0 0 0 0 0 0 0 0 0 0 0 0 0 0 0 0 0 0 0 0 0 0 0 0 0 0 0
0 0 0 0 0 0 0 0 0 0 0 0 0 0 0 0 0 0 0 0 0 0 0 0 0 0 0 0 0 0 0 0 0 0 0 0 0 0 0 0 0 0 0
0 0 0 0 0 0 0 0 0 0 0 0 0 0 0 0 0 0 0 0 0 0 0 0 0 0 0 0 0 0 0 0 0 0 0 0 0 0 0 0 0 0 0
Wind_Speed
5 4 4 4 4 3 3 3 3 2 2 2 2 3 2 3 2 3 2 2 3 2 2 2 2 2 2 1 2 2 2 2 2 1 1 2 3 3 3 3 3 3 3
5 5 4 4 4 4 3 3 3 3 2 2 3 3 2 2 2 2 2 2 2 2 1 2 2 2 2 2 2 2 1 1 2 1 1 2 2 2 2 3 3 3 2
5 5 4 4 4 4 4 3 3 3 3 2 3 3 2 2 2 2 2 2 2 1 1 2 1 2 1 1 2 2 1 2 2 2 0 1 1 2 2 2 3 3 3
5 5 5 5 5 4 4 3 3 4 4 3 3 3 3 2 2 2 2 2 2 1 1 1 1 2 2 2 2 1 2 2 2 2 1 1 1 1 1 2 2 2 2
6 6 6 5 4 4 3 3 3 3 4 3 3 2 2 2 2 3 3 2 2 1 0 0 0 1 2 2 2 2 3 2 1 1 0 0 1 1 1 1 1 2 3
6 6 5 4 4 4 4 4 3 3 3 3 3 3 2 2 4 6 4 3 2 2 1 1 1 0 1 1 2 3 5 3 3 2 1 1 2 2 1 1 1 1 3
7 6 5 5 5 5 4 4 4 4 3 3 3 3 2 3 4 5 6 4 3 2 2 1 1 0 1 0 0 1 1 2 4 4 3 3 2 3 2 1 1 2 3
7 6 6 6 5 5 5 5 4 3 3 3 3 3 2 2 4 5 5 3 2 2 2 2 2 1 1 1 1 1 1 1 2 2 3 3 3 2 3 2 2 2 3
7 7 6 6 6 6 6 5 4 4 3 3 2 3 3 2 3 4 5 3 2 2 2 2 2 2 2 2 2 1 2 3 2 2 3 3 3 2 2 2 1 0 2
7 7 6 7 7 7 6 5 3 4 3 3 2 2 2 2 3 4 5 2 2 1 1 1 2 3 3 3 3 2 2 3 2 2 2 3 2 2 3 3 3 2 2
5 5 5 6 6 6 5 4 4 4 3 3 2 1 1 2 2 4 5 3 3 2 1 1 2 3 3 3 3 3 4 2 1 1 2 2 2 2 2 3 3 3 3
5 5 5 5 4 5 5 4 4 5 4 3 2 0 0 1 1 2 4 5 4 3 2 2 1 1 2 2 2 3 3 1 0 1 1 2 3 3 3 3 4 4 5
5 5 4 4 4 4 5 5 4 3 3 3 2 1 1 1 1 1 2 3 4 2 2 1 1 0 1 1 2 2 1 0 0 1 2 3 3 3 2 2 3 3 4
5 4 4 5 4 4 3 4 4 3 3 3 2 2 1 0 0 0 0 1 1 1 0 1 2 3 2 2 2 2 1 1 1 2 3 3 2 2 2 2 2 2 3
5 4 4 4 5 4 3 2 3 3 4 5 3 3 3 1 2 2 2 1 1 1 2 2 2 2 2 2 2 2 1 1 1 2 2 2 2 2 3 2 2 2 2
5 4 3 3 4 4 4 3 4 3 4 4 5 4 2 2 3 4 4 3 3 5 4 2 1 1 1 1 2 2 2 2 2 2 2 2 3 3 3 3 2 2 4
5 4 3 4 4 4 4 4 3 3 5 4 3 4 4 4 4 4 4 4 4 5 3 1 1 0 1 1 1 1 2 2 2 2 2 2 3 3 3 4 3 3 4
5 5 5 3 4 4 3 3 3 3 2 1 2 3 3 4 4 4 4 5 3 3 1 1 0 1 1 1 1 2 2 2 2 2 2 3 3 3 4 4 4 5 5
4 4 3 3 3 3 3 3 3 3 3 2 2 2 3 4 5 5 5 3 2 1 0 0 0 1 1 1 1 2 2 2 2 2 2 3 3 3 4 4 5 7 6
3 6 6 4 4 4 3 3 3 3 3 2 2 1 1 3 2 2 2 1 1 0 0 0 1 1 1 1 1 1 2 2 3 2 3 3 3 3 4 5 5 5 5
3 4 7 5 3 4 4 4 3 3 3 3 1 1 4 3 2 1 1 1 1 0 0 0 1 1 1 1 1 2 2 2 3 3 3 3 4 4 4 5 5 6 6
4 4 4 4 4 4 4 3 3 3 3 3 2 2 3 3 2 1 1 1 1 0 0 0 0 1 1 1 1 2 2 3 3 4 4 4 4 5 5 5 5 6 6
5 5 4 4 4 5 4 3 3 3 3 3 3 2 2 2 1 1 1 1 1 1 1 1 1 1 1 2 1 1 2 3 4 4 5 5 5 5 5 6 7 8 7
5 5 5 4 4 4 4 3 3 3 3 3 2 2 2 1 1 1 1 1 1 1 1 1 1 2 3 3 2 2 2 3 4 4 5 6 6 6 6 6 7 8 8
4 5 4 4 4 4 4 3 3 3 3 2 2 2 2 2 1 1 1 1 1 1 2 2 1 2 3 4 4 4 5 7 8 6 5 5 6 7 7 8 8 8 9
5 4 4 4 4 3 3 3 3 3 2 2 2 2 2 1 1 1 1 1 1 1 1 1 2 3 3 3 4 6 8 9 9 10 6 5 6 6 7 7 9 9 9
Wind_Direction
173 173 166 170 166 159 167 180 170 157 150 144 136 122 111 100 95 95 92 94 90 70 63 83 75 79 81 72 79 84 80 106 131 302 319 335 352 359 0 4 6 8 3
173 168 172 165 158 166 183 188 168 162 163 159 143 130 124 115 111 116 117 112 113 107 88 86 71 83 77 72 82 86 91 95 126 151 330 347 351 0 0 358 358 2 352
164 164 166 166 169 183 190 185 172 164 159 153 146 151 153 143 137 140 137 130 131 139 137 128 126 109 95 87 95 97 94 88 87 123 149 335 335 356 5 357 357 346 341
164 166 175 183 184 188 186 179 177 168 163 167 167 172 168 157 156 156 144 137 133 127 131 148 158 163 175 151 127 132 118 100 86 94 100 342 323 334 10 351 342 338 327
167 175 189 185 171 167 170 173 168 164 171 168 158 164 161 162 176 169 161 156 153 141 103 276 210 185 187 172 155 161 139 121 109 107 104 356 314 319 296 287 294 316 301
171 184 184 169 164 169 174 166 156 157 156 151 166 170 174 193 182 174 162 161 164 167 189 277 296 274 229 192 172 160 156 154 162 155 184 225 257 241 233 225 231 343 307
176 180 177 172 173 178 171 161 165 170 160 159 176 173 196 219 195 180 172 158 165 181 196 218 263 166 117 121 72 92 180 184 172 167 187 221 232 225 186 212 220 224 250
176 179 180 174 175 171 165 173 178 165 164 173 184 189 201 225 196 181 173 156 164 192 204 205 208 239 191 158 131 65 312 280 237 202 209 228 229 208 183 199 215 248 278
181 186 184 177 172 169 176 183 178 164 170 177 179 182 192 233 201 178 158 151 175 217 221 200 192 214 226 161 145 196 298 301 287 248 237 254 267 241 166 118 98 344 299
192 188 179 174 174 179 184 180 168 163 174 166 167 179 192 220 202 180 162 155 178 221 248 238 221 217 224 182 174 188 245 269 285 318 311 311 300 278 220 192 191 200 255
177 166 167 174 178 177 170 162 156 152 144 146 154 172 192 220 207 183 167 164 184 194 217 249 253 236 234 214 185 200 240 251 252 258 285 299 303 285 263 239 212 202 215
152 153 159 163 166 159 153 151 146 145 142 148 141 127 307 279 206 194 181 185 176 178 213 231 241 239 243 247 226 253 266 288 266 284 291 290 285 282 277 262 247 241 238
137 143 147 142 142 143 147 146 140 145 147 155 151 172 266 313 290 211 192 186 183 187 209 198 176 62 353 327 322 317 309 219 201 264 273 273 270 275 285 290 283 271 271
136 141 139 136 130 126 133 143 146 154 160 163 162 176 203 278 301 294 231 174 158 169 149 71 68 59 52 17 4 352 340 249 228 253 277 284 299 302 292 280 284 298 298
133 133 135 136 139 130 121 129 150 162 169 166 179 176 167 196 239 179 152 149 152 142 107 68 50 36 20 5 355 345 342 345 314 293 290 299 304 307 301 298 283 288 277
133 137 140 137 137 133 131 102 64 87 104 124 132 141 146 140 114 121 126 118 112 115 101 83 62 34 358 341 338 334 332 319 303 298 301 301 303 305 307 308 291 284 290
142 143 137 137 139 138 141 143 124 65 70 87 109 126 122 113 112 111 112 103 94 105 91 83 66 344 314 315 308 303 303 304 307 309 309 309 310 310 308 307 305 298 291
130 133 137 142 143 142 149 148 142 135 120 65 49 79 101 105 99 99 107 96 73 69 79 94 306 305 305 304 304 303 308 322 326 319 316 314 313 311 312 311 307 301 298
127 130 131 129 130 134 136 132 126 125 124 113 77 55 66 86 83 85 101 96 115 117 108 328 306 307 308 308 312 314 317 319 321 320 316 313 312 309 306 305 303 302 300
119 125 126 126 124 121 121 124 124 123 121 117 114 105 85 81 79 79 79 86 99 96 45 338 322 318 312 313 319 325 331 328 326 320 313 309 305 302 301 303 302 300 297
121 125 124 119 122 126 125 127 129 128 128 124 113 101 118 114 116 113 104 90 98 100 339 341 335 330 328 328 329 329 325 319 315 311 309 305 303 299 295 293 293 294 296
121 120 123 125 123 122 124 126 126 127 126 120 96 86 99 92 99 104 92 66 60 55 53 92 22 342 328 322 322 325 323 319 317 314 310 307 306 302 298 294 294 294 294
121 119 116 113 116 118 117 116 119 121 120 118 118 110 103 98 99 94 75 48 46 38 37 47 29 1 349 338 332 320 311 311 311 310 308 307 305 304 302 300 300 301 300
120 122 123 121 116 117 118 115 114 116 115 116 117 118 119 117 100 72 50 43 47 44 40 30 6 349 341 340 338 329 318 314 313 305 302 302 303 301 300 299 299 300 299
119 120 122 124 124 123 120 117 115 114 111 111 113 109 106 99 89 71 53 52 43 31 12 358 343 337 333 328 325 320 317 317 315 310 303 300 299 300 300 298 298 300 300
118 117 117 118 119 122 125 125 122 118 112 106 103 101 99 94 87 70 45 48 29 359 339 330 322 318 317 317 317 318 318 317 316 312 304 297 297 296 299 296 298 298 297